Lid_Strength_Index
4 3 2 2 2 2 2 2 2 2 1 2 2 2 2 2 1 1 1 1 0 0 1 1 1 1 1 1 1 1 2 2 2 4 3 2 2 1 2 2 1 0 0
5 4 3 2 2 2 2 2 2 2 2 2 3 2 2 2 1 1 1 1 1 0 1 1 1 1 1 1 1 1 2 2 2 4 6 6 4 5 3 3 2 1 -0
6 5 4 3 2 3 2 2 2 1 2 1 2 1 2 3 3 2 2 1 1 1 0 1 1 1 1 1 1 1 2 3 2 3 5 6 8 6 4 4 3 2 1
5 5 4 3 3 2 2 2 2 1 1 1 2 2 3 4 4 4 2 1 1 1 0 1 1 1 1 1 1 1 2 4 4 3 4 6 4 6 7 7 4 5 2
5 5 4 3 3 3 2 2 1 1 1 2 2 2 3 3 3 2 1 2 1 1 0 1 1 1 1 1 1 3 4 4 6 6 5 7 8 8 9 10 8 7 4
5 5 4 4 3 3 2 2 2 2 1 2 1 2 2 2 3 3 2 2 2 1 1 1 0 1 1 1 1 2 5 6 7 7 7 8 9 9 9 10 9 8 4
5 5 5 4 4 3 2 2 2 2 1 2 2 1 2 2 3 3 2 2 3 2 1 1 0 1 1 1 1 4 5 6 7 7 8 7 7 7 8 8 8 8 6
4 4 4 4 4 3 2 2 2 2 2 2 2 1 1 1 2 3 2 2 2 2 1 1 1 1 1 1 2 3 5 6 7 8 7 9 6 7 7 6 7 8 6
5 4 4 4 3 3 2 2 2 2 2 1 1 1 1 1 1 2 2 2 1 1 1 1 1 1 1 1 2 4 4 6 7 8 8 7 6 6 5 5 6 7 8
5 4 4 3 3 2 2 2 2 2 2 1 1 1 1 1 1 1 2 3 2 1 2 2 1 1 1 1 2 4 5 7 7 8 9 7 6 5 5 6 6 6 7
6 5 4 3 3 2 2 2 2 2 2 1 1 1 1 1 1 2 2 2 1 1 1 1 1 2 1 1 3 4 6 7 8 8 7 6 7 5 6 5 5 5 6
5 5 4 4 3 3 3 2 2 2 2 1 2 1 1 1 1 2 2 2 1 1 1 1 2 1 1 2 3 3 5 5 8 9 7 6 5 6 6 5 6 6 6
5 5 4 4 4 3 3 3 2 2 2 1 2 2 1 1 1 1 2 2 1 2 2 1 2 2 1 1 2 3 4 6 7 8 7 6 7 7 7 6 6 7 5
5 5 5 4 4 3 3 3 4 4 3 3 2 2 2 1 1 1 2 2 2 2 2 1 1 2 2 1 1 2 4 6 6 7 6 6 7 7 6 6 6 6 7
6 5 5 4 4 3 3 2 2 3 3 3 2 2 1 1 1 1 1 1 2 1 2 2 1 1 1 1 1 3 5 8 7 6 8 8 7 4 5 6 7 7 8
6 5 4 4 4 3 3 2 2 2 2 2 2 2 2 1 1 1 1 1 1 1 2 2 2 1 1 3 4 3 7 9 8 8 7 7 5 4 3 3 3 5 8
6 5 5 4 4 3 3 4 3 2 2 2 2 2 2 2 2 1 1 2 2 1 1 2 2 2 2 5 5 5 7 8 9 8 8 9 7 6 6 4 3 3 4
5 5 4 4 3 3 3 3 2 3 2 2 2 2 2 2 2 2 2 2 1 1 2 1 2 2 2 6 7 6 8 8 8 8 8 8 8 8 7 7 7 7 6
5 4 3 3 3 3 3 2 4 4 4 3 3 3 2 2 2 2 2 2 2 2 2 1 1 2 3 8 8 6 7 8 8 8 8 8 9 7 6 7 7 7 6
4 4 3 3 3 3 2 3 4 4 5 4 3 3 2 2 2 2 2 1 1 2 2 2 1 4 2 10 10 7 7 8 9 9 8 6 8 8 7 8 8 8 7
5 4 3 4 3 3 3 4 4 4 4 3 2 2 2 2 2 1 1 2 2 2 2 2 2 2 3 8 11 9 6 7 8 8 9 8 9 9 9 8 8 8 6
5 5 4 4 3 3 3 4 4 4 3 2 2 2 2 2 1 2 2 2 2 2 3 2 3 2 3 8 11 10 8 8 7 8 8 8 10 10 10 9 9 9 6
4 4 4 4 3 3 3 4 4 3 3 2 2 2 3 3 3 2 2 2 2 3 3 3 3 3 3 6 11 11 10 9 7 6 7 9 11 11 10 9 9 9 7
4 4 4 4 4 3 3 3 3 3 3 3 4 4 3 4 3 4 4 4 3 4 4 4 4 4 3 5 7 7 8 8 6 7 7 8 9 9 7 8 8 7 7
5 4 5 4 4 4 4 3 3 3 3 2 4 4 4 3 4 8 9 6 10 11 7 8 6 5 4 7 12 8 7 6 7 8 8 8 8 9 9 9 8 8 7
5 5 5 5 4 5 4 4 4 3 3 3 4 4 3 4 3 4 8 12 13 14 15 15 12 8 13 15 16 15 13 12 11 8 7 8 8 9 8 9 10 10 7